Simultaneous Nadir Overpasses (SNOs) Predictions

Prediction of SNOs between GOES-16 and TERRA Satellite Orbit:

Table of predicted SNOs for the next 14.0 days since TLE Epoch: 11/18/2023
Index Date Time (GOES-16) GOES-16 Lat,Lon TERRA Lat,Lon Distance(km) Time Diff (sec)
1 11/18/2023 15:04:19 -0.05, -75.22 0.11, -76.06 95.39 80
2 11/20/2023 14:44:57 -0.04, -75.23 -0.70, -72.03 363.83 80
3 11/21/2023 03:07:51 0.04, -75.22 -0.33, -76.95 196.66 80
4 11/23/2023 02:48:29 0.04, -75.24 0.51, -72.92 263.64 80
5 11/23/2023 15:11:16 -0.04, -75.26 0.48, -77.81 289.05 80
6 11/25/2023 14:51:54 -0.03, -75.29 -0.38, -73.78 172.12 80
7 11/26/2023 03:14:46 0.03, -75.28 -0.70, -78.69 387.85 80
8 11/28/2023 02:55:25 0.03, -75.31 0.18, -74.66 73.88 80
9 11/28/2023 15:15:30 -0.02, -75.33 0.86, -79.54 478.64 80
10 11/30/2023 14:58:47 -0.02, -75.37 0.03, -75.51 16.19 80
